This demonstration page uses our WeatherBlox Daily Observations layout. Learn more.

Left ArrowRight Arrow

Hourly Observations for June 13, 2017

Temp ( °F °C ) Dew Point ( °F °C ) Humidity (%) Winds ( mph kmh ) Pressure ( in mb ) Visibility ( mi km ) Precip ( " mm )
12:02 am 00:02 Cloudy 66 19 50 10 56 56 SSW 20 31 29.56 1001 10 16 0.00 0.00
12:53 am 00:53 Mostly Clear 61 16.1 52 11.1 72 72 SSW 16 26 29.59 1002 10 16 0.00 0.00
1:53 am 01:53 Mostly Clear 60 15.6 52 11.1 75 75 Calm 29.58 1002 10 16 0.00 0.00
2:53 am 02:53 Partly Cloudy 59 15 52 11.1 78 78 E 8 13 29.56 1001 10 16 0.00 0.00
3:53 am 03:53 Clear 59 15 52 11.1 78 78 ENE 7 11 29.52 1000 10 16 0.00 0.00
4:53 am 04:53 Cloudy 59 15 53 11.7 81 81 E 10 17 29.52 1000 10 16 0.00 0.00
5:53 am 05:53 Cloudy 60 15.6 53 11.7 78 78 E 13 20 29.51 999 10 16 0.00 0.00
6:53 am 06:53 Mostly Cloudy with Light Rain 61 16.1 53 11.7 75 75 E 16 26 29.51 999 10 16 0.00 0.03
7:53 am 07:53 Sunny 64 17.8 53 11.7 68 68 E 16 26 29.50 999 10 16 0.00 0.03
8:23 am 08:23 Cloudy with Nearby Thunderstorms 62 16.7 53 11.7 73 73 E 16 26 29.50 999 10 16 0.00 0.00
8:38 am 08:38 Cloudy 63 17 54 12 73 73 E 16 26 29.50 999 10 16 0.00 0.00
8:53 am 08:53 Cloudy with Nearby Thunderstorms 62 16.7 53 11.7 73 73 E 22 35 29.52 1000 10 16 0.00 0.00
9:26 am 09:26 Cloudy with Strong Thunderstorms 57 13.9 55 12.8 93 93 E 14 22 29.56 1001 3 4 0.05 1.27
9:41 am 09:41 Cloudy with Nearby Thunderstorms 56 13.3 55 12.8 97 97 ENE 12 19 29.56 1001 3 5 0.13 3.30
9:48 am 09:48 Cloudy with Rain 55 13 55 13 100 100 NNW 10 17 29.50 999 3 5 0.00 0.00
9:53 am 09:53 Cloudy with Light Rain 56 13.3 55 12.8 97 97 WNW 9 15 29.50 999 5 8 0.16 4.06
10:21 am 10:21 Mostly Cloudy 58 14.4 56 13.3 93 93 E 12 19 29.50 999 10 16 0.00 0.03
10:32 am 10:32 Partly Cloudy 59 15 57 14 94 94 E 13 20 29.50 999 10 16 0.00 0.00
10:53 am 10:53 Mostly Cloudy 63 17.2 58 14.4 84 84 E 10 17 29.53 1000 10 16 0.00 0.03
11:04 am 11:04 Mostly Cloudy 64 18 57 14 78 78 E 13 20 29.47 998 10 16 0.00 0.00
11:53 am 11:53 Mostly Cloudy 65 18.3 56 13.3 73 73 ENE 8 13 29.54 1000 10 16 0.00 0.00
12:05 pm 12:05 Mostly Cloudy 66 18.9 56 13.3 70 70 ENE 12 19 29.50 999 10 16 0.00 0.00
12:53 pm 12:53 Sunny 70 21.1 57 13.9 64 64 ENE 13 20 29.54 1000 10 16 0.00 0.00
1:53 pm 13:53 Partly Cloudy 73 22.8 51 10.6 46 46 undefined N/A 29.54 1000 10 16 0.00 0.00
2:53 pm 14:53 Sunny 73 22.8 48 8.9 41 41 NE 6 9 29.54 1000 10 16 0.00 0.00
3:53 pm 15:53 Mostly Cloudy 71 21.7 55 12.8 57 57 N 17 28 29.55 1001 10 16 0.00 0.00
4:25 pm 16:25 Partly Cloudy with Nearby Thunderstorms 71 21.7 50 10 47 47 NE 13 20 29.44 997 10 16 0.00 0.00
4:32 pm 16:32 Mostly Cloudy with Thunderstorms 72 22 52 11 50 50 NE 13 20 29.47 998 10 16 0.00 0.00
4:53 pm 16:53 Cloudy with Thunderstorms 71 21.7 47 8.3 42 42 NE 6 9 29.55 1001 10 16 0.00 0.00
5:53 pm 17:53 Cloudy with Thunderstorms 61 16.1 46 7.8 58 58 WNW 14 22 29.58 1002 10 16 0.00 0.03
6:27 pm 18:27 Cloudy with Nearby Thunderstorms 59 15 49 9.4 69 69 NW 10 17 29.56 1001 10 16 0.01 0.25
6:53 pm 18:53 Mostly Cloudy with Nearby Thunderstorms 59 15 51 10.6 75 75 N 10 17 29.59 1002 10 16 0.01 0.25
7:25 pm 19:25 Mostly Sunny 58 14.4 53 11.7 84 84 S 5 7 29.59 1002 10 16 0.00 0.03
7:51 pm 19:51 Mostly Cloudy with Nearby Thunderstorms 61 16 54 12 77 77 VRB 5 7 29.56 1001 10 16 0.00 0.03
7:53 pm 19:53 Mostly Cloudy with Nearby Thunderstorms 60 15.6 53 11.7 78 78 SSE 5 7 29.60 1002 10 16 0.00 0.03
8:06 pm 20:06 Partly Cloudy 61 16 54 12 77 77 S 12 19 29.53 1000 10 16 0.00 0.00
8:53 pm 20:53 Mostly Sunny 60 15.6 55 12.8 84 84 WSW 13 20 29.60 1002 10 16 0.00 0.00
9:53 pm 21:53 Mostly Clear 59 15 56 13.3 90 90 SW 14 22 29.63 1004 10 16 0.00 0.00
10:53 pm 22:53 Mostly Cloudy with Nearby Thunderstorms 60 15.6 55 12.8 84 84 SW 10 17 29.65 1004 10 16 0.00 0.03
11:00 pm 23:00 Cloudy with Nearby Thunderstorms 59 15 54 12 82 82 SSW 7 11 29.65 1004 10 16 0.00 0.00
11:13 pm 23:13 Cloudy with Thunderstorms 59 15 55 12.8 87 87 SW 14 22 29.65 1004 10 16 0.00 0.03
11:34 pm 23:34 Cloudy with Light Rain 55 13 54 12 94 94 SSW 17 28 29.65 1004 10 16 0.00 0.00
11:53 pm 23:53 Mostly Cloudy 56 13.3 53 11.7 90 90 SSW 14 22 29.66 1005 10 16 0.01 0.25

Powered by AerisWeather